N8244L MPMG-MPRA

Flight info

Callsign N8244L
Flight time 0h 18m
Altitude 5000
Route TBG/N0269F070 DCT ALBIL
Aircraft STAR/L-SDFGRWY/S

Departure

Time 2026-05-05 01:54
Airport Marcos A. Gelabert International Airport (MPMG)

Arrival

Time 2026-05-05 02:13
Airport Raul Arias Espinoza Airport (MPRA)
Time Latitude Longitude Altitude Speed Heading
2026-05-05 01:51 8.96901 -79.55993 30 ft 0 kts 105°
2026-05-05 01:51 8.96818 -79.55990 30 ft 28 kts 200°
2026-05-05 01:51 8.96660 -79.55906 30 ft 19 kts 149°
2026-05-05 01:52 8.96598 -79.55868 30 ft 6 kts 145°
2026-05-05 01:52 8.96547 -79.55780 30 ft 21 kts 92°
2026-05-05 01:52 8.96543 -79.55706 30 ft 2 kts 91°
2026-05-05 01:52 8.96543 -79.55694 29 ft 10 kts 91°
2026-05-05 01:53 8.96592 -79.55620 28 ft 11 kts
2026-05-05 01:53 8.96617 -79.55619 28 ft 0 kts
2026-05-05 01:53 8.96627 -79.55619 28 ft 11 kts
2026-05-05 01:54 8.96894 -79.55598 27 ft 65 kts
2026-05-05 01:54 8.97519 -79.55538 110 ft 114 kts 359°
2026-05-05 01:54 8.98439 -79.55473 563 ft 145 kts
2026-05-05 01:54 8.99550 -79.55410 1101 ft 173 kts 359°
2026-05-05 01:55 9.00676 -79.55861 1779 ft 181 kts 318°
2026-05-05 01:55 9.01228 -79.57015 2561 ft 190 kts 277°
2026-05-05 01:55 9.00912 -79.58314 3420 ft 196 kts 238°
2026-05-05 01:55 8.99999 -79.59351 4260 ft 200 kts 224°
2026-05-05 01:56 8.98807 -79.60045 5123 ft 199 kts 188°
2026-05-05 01:56 8.97436 -79.60083 6012 ft 200 kts 169°
2026-05-05 01:56 8.96049 -79.59685 6517 ft 219 kts 144°
2026-05-05 01:56 8.95018 -79.58519 6812 ft 233 kts 110°
2026-05-05 01:57 8.94851 -79.57016 7951 ft 204 kts 77°
2026-05-05 01:57 8.95006 -79.55664 9116 ft 189 kts 98°
2026-05-05 01:57 8.94354 -79.54568 10213 ft 184 kts 137°
2026-05-05 01:57 8.93160 -79.54171 11235 ft 184 kts 173°
2026-05-05 01:58 8.91904 -79.54223 12264 ft 177 kts 180°
2026-05-05 01:58 8.90715 -79.54196 13252 ft 165 kts 157°
2026-05-05 01:58 8.89614 -79.53900 14081 ft 172 kts 174°
2026-05-05 01:58 8.88283 -79.54063 14316 ft 213 kts 188°
2026-05-05 01:59 8.86733 -79.54417 14544 ft 242 kts 191°
2026-05-05 01:59 8.85022 -79.54854 14766 ft 264 kts 192°
2026-05-05 01:59 8.83204 -79.55331 14897 ft 281 kts 191°
2026-05-05 01:59 8.81203 -79.55501 14966 ft 291 kts 169°
2026-05-05 02:00 8.79318 -79.54763 15077 ft 290 kts 141°
2026-05-05 02:00 8.78122 -79.53322 16225 ft 253 kts 115°
2026-05-05 02:00 8.77518 -79.51744 17383 ft 231 kts 105°
2026-05-05 02:00 8.77184 -79.50240 18479 ft 215 kts 105°
2026-05-05 02:01 8.76800 -79.48826 19424 ft 203 kts 109°
2026-05-05 02:01 8.76409 -79.47434 19980 ft 218 kts 107°
2026-05-05 02:01 8.76011 -79.45868 20214 ft 242 kts 106°
2026-05-05 02:01 8.75555 -79.44163 20450 ft 260 kts 107°
2026-05-05 02:02 8.75067 -79.42355 20675 ft 273 kts 106°
2026-05-05 02:02 8.74566 -79.40455 20805 ft 286 kts 106°
2026-05-05 02:02 8.74037 -79.38474 20869 ft 298 kts 106°
2026-05-05 02:02 8.73488 -79.36422 20901 ft 306 kts 106°
2026-05-05 02:03 8.72929 -79.34323 20917 ft 312 kts 106°
2026-05-05 02:03 8.72359 -79.32189 20929 ft 316 kts 106°
2026-05-05 02:03 8.71783 -79.30031 20932 ft 320 kts 106°
2026-05-05 02:03 8.71202 -79.27857 20934 ft 322 kts 106°
2026-05-05 02:04 8.70618 -79.25669 20937 ft 323 kts 105°
2026-05-05 02:04 8.70033 -79.23473 20938 ft 324 kts 106°
2026-05-05 02:04 8.69442 -79.21273 20916 ft 325 kts 105°
2026-05-05 02:04 8.68834 -79.19007 19855 ft 340 kts 105°
2026-05-05 02:05 8.68215 -79.16686 18355 ft 342 kts 106°
2026-05-05 02:05 8.67135 -79.14564 16979 ft 338 kts 128°
2026-05-05 02:05 8.65390 -79.13056 15902 ft 327 kts 149°
2026-05-05 02:05 8.63292 -79.12239 14709 ft 322 kts 162°
2026-05-05 02:06 8.61136 -79.11668 13537 ft 318 kts 165°
2026-05-05 02:06 8.58987 -79.11237 12333 ft 312 kts 171°
2026-05-05 02:06 8.56869 -79.11037 11226 ft 306 kts 172°
2026-05-05 02:06 8.54854 -79.10517 10386 ft 288 kts 151°
2026-05-05 02:07 8.53367 -79.09287 9596 ft 268 kts 125°
2026-05-05 02:07 8.52633 -79.07660 8526 ft 258 kts 99°
2026-05-05 02:07 8.52514 -79.05855 7422 ft 257 kts 89°
2026-05-05 02:07 8.52738 -79.04113 6384 ft 245 kts 69°
2026-05-05 02:08 8.53719 -79.02710 5246 ft 248 kts 40°
2026-05-05 02:08 8.55263 -79.01993 4231 ft 247 kts 11°
2026-05-05 02:08 8.56967 -79.02057 3292 ft 244 kts 353°
2026-05-05 02:08 8.58618 -79.02357 2317 ft 237 kts 350°
2026-05-05 02:09 8.60107 -79.02719 1008 ft 206 kts 338°
2026-05-05 02:09 8.61497 -79.03312 188 ft 201 kts 356°
2026-05-05 02:09 8.62755 -79.03464 86 ft 180 kts 356°
2026-05-05 02:09 8.63671 -79.03926 801 ft 114 kts 262°
2026-05-05 02:10 8.63184 -79.04407 1222 ft 127 kts 195°
2026-05-05 02:10 8.62143 -79.04451 1018 ft 176 kts 171°
2026-05-05 02:10 8.60861 -79.04124 914 ft 196 kts 163°
2026-05-05 02:10 8.59433 -79.04000 942 ft 218 kts 178°
2026-05-05 02:11 8.57903 -79.03911 1301 ft 215 kts 156°
2026-05-05 02:11 8.57741 -79.02836 1709 ft 182 kts 43°
2026-05-05 02:11 8.58917 -79.02612 671 ft 174 kts 336°
2026-05-05 02:11 8.59927 -79.03035 228 ft 147 kts 343°
2026-05-05 02:12 8.60818 -79.03195 166 ft 116 kts 354°
2026-05-05 02:12 8.62401 -79.03401 105 ft 105 kts 351°
2026-05-05 02:12 8.62985 -79.03488 44 ft 55 kts 352°
2026-05-05 02:13 8.63125 -79.03508 42 ft 6 kts 321°
2026-05-05 02:13 8.63120 -79.03476 43 ft 3 kts 242°
2026-05-05 02:13 8.63118 -79.03476 43 ft 0 kts 220°
2026-05-05 02:21 8.63110 -79.03483 45 ft 2 kts 217°
2026-05-05 02:21 8.63109 -79.03484 45 ft 0 kts 218°
2026-05-05 02:21 8.62983 -79.03487 44 ft 46 kts 170°
2026-05-05 02:22 8.62602 -79.03422 44 ft 45 kts 170°
2026-05-05 02:22 8.62540 -79.03428 45 ft 0 kts 296°
2026-05-05 02:22 8.62531 -79.03420 45 ft 1 kts 343°
2026-05-05 02:22 8.62752 -79.03452 44 ft 61 kts 351°
2026-05-05 02:23 8.63356 -79.03548 120 ft 110 kts 349°
2026-05-05 02:23 8.64257 -79.03861 199 ft 167 kts 319°
2026-05-05 02:23 8.64881 -79.04980 607 ft 191 kts 292°
2026-05-05 02:23 8.65145 -79.06285 1420 ft 189 kts 275°
2026-05-05 02:24 8.65207 -79.07616 2261 ft 191 kts 275°
2026-05-05 02:24 8.65290 -79.08961 3095 ft 192 kts 278°
2026-05-05 02:24 8.65444 -79.10309 3931 ft 194 kts 281°
2026-05-05 02:24 8.65663 -79.11650 4825 ft 194 kts 284°
2026-05-05 02:25 8.65922 -79.12990 5718 ft 195 kts 284°